Detroit, MI

2:47 PM EST on February 06, 2016 (GMT -0500)
Detroit City

Weather History for KDET - January, 2014

Change the Weather History Date:

Sunday, January 12, 2014

  Actual Average Record
Temperature  
Mean Temperature 37 °F -  
Max Temperature 39 °F 28 °F 59 °F (2013)
Min Temperature 35 °F 17 °F 1 °F (1981)
Degree Days  
Heating Degree Days 28    
Moisture  
Dew Point 27 °F    
Average Humidity 70    
Maximum Humidity 79    
Minimum Humidity 60    
Precipitation  
Precipitation 0.00 in - - ()
Sea Level Pressure  
Sea Level Pressure 29.84 in    
Wind  
Wind Speed 12 mph (SW)    
Max Wind Speed 16 mph    
Max Gust Speed 29 mph    
Visibility 10 miles    
Events      
Averages and records for this station are not official NWS values.
T = Trace of Precipitation, MM = Missing Value Source: NWS Daily Summary

Daily Weather History Graph

Daily Weather History Graph

Search for Another Location

Airport or City:

Trip Planner

Search our weather history database for the weather conditions in past years. The results will help you decide how hot, cold, wet, or windy it might be!

Date:

Astronomy

Jan. 12, 2014 Rise Set
Actual Time 7:59 AM EST 5:21 PM EST
Civil Twilight 7:28 AM EST 5:52 PM EST
Nautical Twilight 6:53 AM EST 6:27 PM EST
Astronomical Twilight 6:20 AM EST 7:01 PM EST
Moon 2:48 PM EST (1/12) 4:57 AM EST (1/12)
Length of Visible Light 10h 23m
Length of Day
9h 21m
Waxing Gibbous, 89% of the Moon is Illuminated
Jan 12
Waxing Gibbous
Jan 15
Full
Jan 24
Last Quarter
Jan 30
New
Feb 6
First Quarter

Hourly Weather History & Observations

Time (EST) Temp. Windchill Dew Point Humidity Pressure Visibility Wind Dir Wind Speed Gust Speed Precip Events Conditions
12:53 AM 36.0 °F 27.1 °F 26.1 °F 67% 29.65 in 10.0 mi West 13.8 mph 24.2 mph N/A   Overcast
1:53 AM 35.1 °F 25.2 °F 26.1 °F 70% 29.68 in 10.0 mi WNW 16.1 mph 25.3 mph N/A   Overcast
2:53 AM 35.1 °F 27.9 °F 27.0 °F 72% 29.72 in 10.0 mi WNW 9.2 mph 24.2 mph N/A   Overcast
3:53 AM 35.1 °F 28.6 °F 26.1 °F 70% 29.74 in 10.0 mi WNW 8.1 mph 18.4 mph N/A   Overcast
4:53 AM 35.1 °F 27.9 °F 26.1 °F 70% 29.77 in 10.0 mi West 9.2 mph - N/A   Overcast
5:53 AM 35.1 °F 27.4 °F 26.1 °F 70% 29.80 in 10.0 mi West 10.4 mph - N/A   Overcast
6:53 AM 35.1 °F 28.6 °F 27.0 °F 72% 29.82 in 10.0 mi West 8.1 mph - N/A   Overcast
7:53 AM 36.0 °F 30.3 °F 27.0 °F 70% 29.85 in 10.0 mi West 6.9 mph - N/A   Overcast
8:53 AM 36.0 °F 31.1 °F 26.1 °F 67% 29.88 in 10.0 mi West 5.8 mph - N/A   Overcast
9:53 AM 36.0 °F 28.0 °F 25.0 °F 64% 29.91 in 10.0 mi West 11.5 mph - N/A   Mostly Cloudy
10:17 AM 35.6 °F 28.6 °F 24.8 °F 65% 29.91 in 10.0 mi West 9.2 mph - N/A   Partly Cloudy
10:51 AM 37.4 °F 29.3 °F 24.8 °F 60% 29.91 in 10.0 mi SW 12.7 mph - N/A   Mostly Cloudy
10:53 AM 37.0 °F 28.9 °F 26.1 °F 65% 29.93 in 10.0 mi WSW 12.7 mph - N/A   Scattered Clouds
11:53 AM 37.9 °F 29.2 °F 26.1 °F 62% 29.93 in 10.0 mi SW 15.0 mph 23.0 mph N/A   Partly Cloudy
12:53 PM 39.0 °F 31.0 °F 27.0 °F 62% 29.91 in 10.0 mi SW 13.8 mph - N/A   Clear
1:53 PM 37.9 °F 30.9 °F 27.0 °F 65% 29.89 in 10.0 mi SW 10.4 mph 23.0 mph N/A   Clear
2:53 PM 39.0 °F 30.6 °F 28.0 °F 65% 29.88 in 10.0 mi SSW 15.0 mph - N/A   Clear
3:53 PM 37.0 °F 28.9 °F 28.0 °F 70% 29.89 in 10.0 mi SSW 12.7 mph - N/A   Clear
4:53 PM 35.1 °F 27.4 °F 28.0 °F 76% 29.91 in 10.0 mi South 10.4 mph - N/A   Clear
5:53 PM 35.1 °F 25.5 °F 28.0 °F 76% 29.90 in 10.0 mi South 15.0 mph 21.9 mph N/A   Clear
6:53 PM 36.0 °F 26.7 °F 28.9 °F 76% 29.88 in 10.0 mi South 15.0 mph - N/A   Clear
7:53 PM 36.0 °F 26.7 °F 28.9 °F 76% 29.86 in 10.0 mi South 15.0 mph 25.3 mph N/A   Clear
8:53 PM 36.0 °F 26.7 °F 28.9 °F 76% 29.83 in 10.0 mi South 15.0 mph 28.8 mph N/A   Clear
9:53 PM 36.0 °F 27.5 °F 30.0 °F 79% 29.81 in 10.0 mi South 12.7 mph 23.0 mph N/A   Clear
10:53 PM 37.0 °F 29.3 °F 30.0 °F 76% 29.83 in 10.0 mi SW 11.5 mph 23.0 mph N/A   Clear
11:53 PM 39.0 °F 31.4 °F 30.0 °F 70% 29.80 in 10.0 mi SSW 12.7 mph 18.4 mph N/A   Clear